This is the latest recevied weather packets stored in our database for station/object WZ8H. If no packets are shown the sender has not sent any weather packets the latest 10 day(s).
| Time | Temp. | Humidity | Pressure | Rain* | Wind** | Luminosity | Snow |
|---|---|---|---|---|---|---|---|
| 1777922674 | 22.78° C | 57% | 1002.7 hPa | 0 mm | - | 838 W/m² | - |
| 1777922371 | 22.78° C | 58% | 1002.7 hPa | 0 mm | - | 851 W/m² | - |
| 1777922070 | 22.22° C | 58% | 1002.8 hPa | 0 mm | - | 861 W/m² | - |
| 1777921747 | 22.22° C | 59% | 1002.9 hPa | 0 mm | - | 867 W/m² | - |
| 1777921445 | 22.78° C | 60% | 1002.9 hPa | 0 mm | - | 868 W/m² | - |
| 1777921143 | 22.22° C | 59% | 1003 hPa | 0 mm | - | 879 W/m² | - |
| 1777920845 | 22.22° C | 59% | 1003 hPa | 0 mm | - | 888 W/m² | - |
| 1777920520 | 22.22° C | 59% | 1003.1 hPa | 0 mm | - | 896 W/m² | - |
| 1777920197 | 22.22° C | 59% | 1003.2 hPa | 0 mm | - | 898 W/m² | - |
| 1777919897 | 22.22° C | 57% | 1003.3 hPa | 0 mm | - | 898 W/m² | - |
| 1777919600 | 21.67° C | 60% | 1003.3 hPa | 0 mm | - | 912 W/m² | - |
| 1777919297 | 22.22° C | 58% | 1003.4 hPa | 0 mm | - | 923 W/m² | - |
| 1777918998 | 22.22° C | 60% | 1003.4 hPa | 0 mm | - | 928 W/m² | - |
| 1777918695 | 22.22° C | 58% | 1003.4 hPa | 0 mm | - | 932 W/m² | - |
| 1777918395 | 21.67° C | 59% | 1003.5 hPa | 0 mm | - | 933 W/m² | - |
| 1777918083 | 21.67° C | 60% | 1003.7 hPa | 0 mm | - | 933 W/m² | - |
| 1777917782 | 21.67° C | 61% | 1003.6 hPa | 0 mm | - | 939 W/m² | - |
| 1777917453 | 21.67° C | 60% | 1003.7 hPa | 0 mm | - | 939 W/m² | - |
| 1777917140 | 21.11° C | 61% | 1003.7 hPa | 0 mm | - | 942 W/m² | - |
| 1777916836 | 21.67° C | 61% | 1004.1 hPa | 0 mm | - | 940 W/m² | - |
| 1777916514 | 21.67° C | 60% | 1004.1 hPa | 0 mm | - | 944 W/m² | - |
| 1777916185 | 21.67° C | 62% | 1004.1 hPa | 0 mm | - | 944 W/m² | - |
| 1777915856 | 21.11° C | 60% | 1004.1 hPa | 0 mm | - | 942 W/m² | - |
| 1777915534 | 21.11° C | 60% | 1004.2 hPa | 0 mm | - | 944 W/m² | - |
| 1777915219 | 21.11° C | 62% | 1004.1 hPa | 0 mm | - | 942 W/m² | - |
* Rain latest hour (hover to see other rain measurements)
** Current wind speed in m/s (hover to see current wind gust speed)